This is the latest recevied weather packets stored in our database for station/object K1LVA. If no packets are shown the sender has not sent any weather packets the latest 10 day(s).
| Time | Temp. | Humidity | Pressure | Rain* | Wind** | Luminosity | Snow |
|---|---|---|---|---|---|---|---|
| 1778084541 | 24.44° C | 74% | 1016.9 hPa | 0 mm | - | 241 W/m² | - |
| 1778084238 | 24.44° C | 73% | 1016.7 hPa | 0 mm | - | 315 W/m² | - |
| 1778083935 | 24.44° C | 74% | 1016.7 hPa | 0 mm | - | 377 W/m² | - |
| 1778083633 | 25° C | 73% | 1016.8 hPa | 0 mm | - | 427 W/m² | - |
| 1778083329 | 24.44° C | 73% | 1016.7 hPa | 0 mm | - | 350 W/m² | - |
| 1778083028 | 23.89° C | 75% | 1016.8 hPa | 0 mm | - | 350 W/m² | - |
| 1778082724 | 23.89° C | 74% | 1016.7 hPa | 0 mm | - | 353 W/m² | - |
| 1778081586 | 23.89° C | 74% | 1016.4 hPa | 0 mm | - | 280 W/m² | - |
| 1778081283 | 23.33° C | 76% | 1016.5 hPa | 0 mm | - | 313 W/m² | - |
| 1778080980 | 23.33° C | 75% | 1016.4 hPa | 0 mm | - | 333 W/m² | - |
| 1778080679 | 23.33° C | 75% | 1016.2 hPa | 0 mm | - | 367 W/m² | - |
| 1778080375 | 22.78° C | 76% | 1016.1 hPa | 0 mm | - | 531 W/m² | - |
| 1778080072 | 22.78° C | 76% | 1016.1 hPa | 0 mm | - | 444 W/m² | - |
| 1778079769 | 22.78° C | 77% | 1016.2 hPa | 0 mm | - | 350 W/m² | - |
| 1778079466 | 22.78° C | 78% | 1016.1 hPa | 0 mm | - | 341 W/m² | - |
| 1778079162 | 22.22° C | 79% | 1016.5 hPa | 0 mm | - | 291 W/m² | - |
| 1778078860 | 22.22° C | 78% | 1016.3 hPa | 0 mm | - | 255 W/m² | - |
| 1778078557 | 22.22° C | 79% | 1016.4 hPa | 0 mm | - | 212 W/m² | - |
| 1778078254 | 22.22° C | 79% | 1016.4 hPa | 0 mm | - | 241 W/m² | - |
| 1778077952 | 22.22° C | 80% | 1016.2 hPa | 0 mm | - | 291 W/m² | - |
| 1778077650 | 21.67° C | 80% | 1016.4 hPa | 0 mm | - | 281 W/m² | - |
| 1778077348 | 21.67° C | 80% | 1016.4 hPa | 0 mm | - | 276 W/m² | - |
| 1778077046 | 21.67° C | 80% | 1016.5 hPa | 0 mm | - | 249 W/m² | - |
| 1778076744 | 21.11° C | 81% | 1016.5 hPa | 0 mm | - | 288 W/m² | - |
| 1778076441 | 21.11° C | 82% | 1016.4 hPa | 0 mm | - | 246 W/m² | - |
* Rain latest hour (hover to see other rain measurements)
** Current wind speed in m/s (hover to see current wind gust speed)